Previsão horária em Cebulki

Hoje, 25 Julho, Domingo

Tempo Temperatura Precipitação Vento Pressão Humidade
00:00 +18°C° 0 mm 2 m/s 744 mmHg 72%
01:00 +18°C° 0 mm 2 m/s 744 mmHg 73%
02:00 +18°C° 0 mm 2 m/s 744 mmHg 74%
03:00 +17°C° 0 mm 2 m/s 744 mmHg 75%
04:00 +17°C° 0 mm 3 m/s 744 mmHg 76%
05:00 +18°C° 0 mm 3 m/s 744 mmHg 74%
06:00 +19°C° 0 mm 3 m/s 744 mmHg 72%
07:00 +20°C° 0 mm 4 m/s 744 mmHg 70%
08:00 +22°C° 0 mm 4 m/s 744 mmHg 67%
09:00 +23°C° 0 mm 4 m/s 744 mmHg 64%
10:00 +25°C° 0 mm 4 m/s 744 mmHg 60%
11:00 +26°C° 0 mm 5 m/s 744 mmHg 55%
12:00 +28°C° 0 mm 5 m/s 743 mmHg 50%
13:00 +29°C° 0 mm 5 m/s 743 mmHg 44%
14:00 +29°C° 0 mm 4 m/s 743 mmHg 45%
15:00 +29°C° 0 mm 3 m/s 743 mmHg 45%
16:00 +29°C° 0 mm 2 m/s 743 mmHg 45%
17:00 +27°C° 0 mm 3 m/s 743 mmHg 50%
18:00 +26°C° 0 mm 3 m/s 743 mmHg 55%
19:00 +23°C° 0 mm 4 m/s 743 mmHg 59%
20:00 +23°C° 0 mm 4 m/s 743 mmHg 59%
21:00 +22°C° 0 mm 4 m/s 743 mmHg 59%
22:00 +22°C° 0 mm 4 m/s 743 mmHg 59%
23:00 +21°C° 0 mm 4 m/s 743 mmHg 61%

Amanhã, 26 Julho, Segunda-feira

Tempo Temperatura Precipitação Vento Pressão Humidade
00:00 +20°C° 0 mm 3 m/s 743 mmHg 63%
01:00 +20°C° 0 mm 3 m/s 743 mmHg 64%
02:00 +20°C° 0 mm 4 m/s 743 mmHg 65%
03:00 +20°C° 0 mm 4 m/s 743 mmHg 65%
04:00 +20°C° 0 mm 4 m/s 743 mmHg 66%
05:00 +20°C° 0 mm 4 m/s 743 mmHg 66%
06:00 +21°C° 0 mm 5 m/s 743 mmHg 67%
07:00 +22°C° 0 mm 5 m/s 743 mmHg 68%
08:00 +23°C° 0 mm 5 m/s 743 mmHg 64%
09:00 +24°C° 0 mm 6 m/s 743 mmHg 60%
10:00 +27°C° 0 mm 6 m/s 743 mmHg 56%
11:00 +28°C° 0 mm 6 m/s 743 mmHg 51%
12:00 +29°C° 0 mm 7 m/s 742 mmHg 46%
13:00 +32°C° 0 mm 7 m/s 742 mmHg 42%
14:00 +30°C° 0 mm 6 m/s 742 mmHg 45%
15:00 +30°C° 0 mm 6 m/s 742 mmHg 48%
16:00 +29°C° 0 mm 5 m/s 742 mmHg 52%
17:00 +27°C° 0.7 mm 4 m/s 742 mmHg 60%
18:00 +25°C° 0.7 mm 3 m/s 742 mmHg 69%
19:00 +23°C° 0.7 mm 2 m/s 742 mmHg 77%
20:00 +21°C° 0.1 mm 3 m/s 742 mmHg 82%
21:00 +20°C° 0.1 mm 3 m/s 742 mmHg 87%
22:00 +19°C° 0.1 mm 3 m/s 742 mmHg 92%
23:00 +19°C° 0.1 mm 3 m/s 742 mmHg 93%

Depois de amanhã, 27 Julho, Terça-feira

Tempo Temperatura Precipitação Vento Pressão Humidade
00:00 +19°C° 0.1 mm 3 m/s 742 mmHg 95%
01:00 +18°C° 0.1 mm 2 m/s 741 mmHg 96%
02:00 +18°C° 0 mm 2 m/s 741 mmHg 97%
03:00 +18°C° 0 mm 2 m/s 741 mmHg 97%
04:00 +18°C° 0 mm 2 m/s 741 mmHg 98%
05:00 +19°C° 0.2 mm 2 m/s 741 mmHg 95%
06:00 +20°C° 0.2 mm 2 m/s 741 mmHg 93%
07:00 +21°C° 0.2 mm 2 m/s 741 mmHg 90%
08:00 +24°C° 0.1 mm 2 m/s 741 mmHg 82%
09:00 +25°C° 0.1 mm 2 m/s 741 mmHg 74%
10:00 +27°C° 0.1 mm 2 m/s 741 mmHg 65%
11:00 +28°C° 0.2 mm 3 m/s 741 mmHg 60%
12:00 +29°C° 0.2 mm 3 m/s 741 mmHg 55%
13:00 +30°C° 0.2 mm 4 m/s 741 mmHg 49%
14:00 +30°C° 0 mm 4 m/s 741 mmHg 49%
15:00 +30°C° 0 mm 4 m/s 741 mmHg 49%
16:00 +30°C° 0 mm 3 m/s 741 mmHg 49%
17:00 +28°C° 0.2 mm 3 m/s 741 mmHg 59%
18:00 +25°C° 0.2 mm 3 m/s 741 mmHg 68%
19:00 +22°C° 0.2 mm 3 m/s 741 mmHg 77%
20:00 +21°C° 0 mm 2 m/s 741 mmHg 80%
21:00 +21°C° 0 mm 2 m/s 741 mmHg 82%
22:00 +21°C° 0 mm 1 m/s 741 mmHg 84%
23:00 +20°C° 0 mm 1 m/s 741 mmHg 85%

28 Julho, Quarta-feira

Tempo Temperatura Precipitação Vento Pressão Humidade
00:00 +20°C° 0 mm 1 m/s 741 mmHg 86%
01:00 +20°C° 0 mm 1 m/s 741 mmHg 86%
02:00 +20°C° 0 mm 1 m/s 741 mmHg 87%
03:00 +19°C° 0 mm 1 m/s 741 mmHg 87%
04:00 +19°C° 0 mm 1 m/s 741 mmHg 88%
05:00 +21°C° 0 mm 1 m/s 741 mmHg 82%
06:00 +21°C° 0 mm 2 m/s 741 mmHg 77%
07:00 +24°C° 0 mm 2 m/s 741 mmHg 71%
08:00 +25°C° 0.4 mm 2 m/s 741 mmHg 69%
09:00 +25°C° 0.4 mm 3 m/s 742 mmHg 67%
10:00 +26°C° 0.4 mm 3 m/s 742 mmHg 65%
11:00 +25°C° 0.7 mm 4 m/s 742 mmHg 68%
12:00 +25°C° 0.7 mm 4 m/s 742 mmHg 71%
13:00 +23°C° 0.7 mm 4 m/s 742 mmHg 74%
14:00 +22°C° 1.1 mm 3 m/s 742 mmHg 77%
15:00 +21°C° 1.1 mm 3 m/s 742 mmHg 80%
16:00 +20°C° 1.1 mm 2 m/s 742 mmHg 83%
17:00 +20°C° 0.1 mm 2 m/s 742 mmHg 84%
18:00 +19°C° 0.1 mm 2 m/s 742 mmHg 85%
19:00 +19°C° 0.1 mm 2 m/s 742 mmHg 86%
20:00 +18°C° 0.1 mm 2 m/s 742 mmHg 87%
21:00 +18°C° 0.1 mm 2 m/s 742 mmHg 88%
22:00 +17°C° 0.1 mm 2 m/s 742 mmHg 89%
23:00 +17°C° 0 mm 2 m/s 742 mmHg 90%

29 Julho, Quinta-feira

Tempo Temperatura Precipitação Vento Pressão Humidade
00:00 +17°C° 0 mm 2 m/s 742 mmHg 91%
01:00 +16°C° 0 mm 2 m/s 742 mmHg 92%
02:00 +17°C° 0 mm 2 m/s 742 mmHg 91%
03:00 +17°C° 0 mm 2 m/s 742 mmHg 90%
04:00 +17°C° 0 mm 2 m/s 742 mmHg 89%
05:00 +18°C° 0 mm 2 m/s 742 mmHg 84%
06:00 +19°C° 0 mm 3 m/s 742 mmHg 79%
07:00 +20°C° 0 mm 3 m/s 742 mmHg 73%
08:00 +22°C° 0 mm 4 m/s 742 mmHg 67%
09:00 +23°C° 0 mm 4 m/s 743 mmHg 61%
10:00 +25°C° 0 mm 5 m/s 743 mmHg 55%
11:00 +26°C° 0 mm 5 m/s 743 mmHg 51%
12:00 +27°C° 0 mm 5 m/s 743 mmHg 46%
13:00 +27°C° 0 mm 5 m/s 743 mmHg 41%
14:00 +27°C° 0 mm 4 m/s 742 mmHg 41%
15:00 +27°C° 0 mm 4 m/s 742 mmHg 42%
16:00 +27°C° 0 mm 4 m/s 742 mmHg 42%
17:00 +26°C° 0 mm 3 m/s 742 mmHg 50%
18:00 +24°C° 0 mm 2 m/s 742 mmHg 57%
19:00 +21°C° 0 mm 2 m/s 742 mmHg 65%
20:00 +21°C° 0 mm 1 m/s 742 mmHg 67%
21:00 +20°C° 0 mm 1 m/s 742 mmHg 68%
22:00 +19°C° 0 mm 1 m/s 742 mmHg 70%
23:00 +19°C° 0 mm 1 m/s 741 mmHg 68%

30 Julho, Sexta-feira

Tempo Temperatura Precipitação Vento Pressão Humidade
00:00 +20°C° 0 mm 1 m/s 741 mmHg 66%
01:00 +19°C° 0 mm 2 m/s 741 mmHg 64%
02:00 +19°C° 0 mm 2 m/s 741 mmHg 65%
03:00 +19°C° 0 mm 2 m/s 741 mmHg 67%
04:00 +18°C° 0 mm 2 m/s 741 mmHg 69%
05:00 +20°C° 0 mm 2 m/s 741 mmHg 67%
06:00 +21°C° 0 mm 2 m/s 741 mmHg 66%
07:00 +23°C° 0 mm 2 m/s 741 mmHg 64%
08:00 +25°C° 0 mm 3 m/s 740 mmHg 59%
09:00 +27°C° 0 mm 3 m/s 740 mmHg 53%
10:00 +29°C° 0 mm 4 m/s 740 mmHg 48%
11:00 +29°C° 0 mm 4 m/s 740 mmHg 49%
12:00 +29°C° 0 mm 5 m/s 740 mmHg 51%
13:00 +29°C° 0 mm 5 m/s 740 mmHg 52%
14:00 +28°C° 0.1 mm 5 m/s 740 mmHg 54%
15:00 +28°C° 0.1 mm 5 m/s 740 mmHg 56%
16:00 +28°C° 0.1 mm 5 m/s 740 mmHg 58%
17:00 +26°C° 1.3 mm 4 m/s 740 mmHg 67%
18:00 +24°C° 1.3 mm 2 m/s 740 mmHg 76%
19:00 +22°C° 1.3 mm 1 m/s 740 mmHg 85%
20:00 +21°C° 0 mm 1 m/s 740 mmHg 87%
21:00 +20°C° 0 mm 1 m/s 740 mmHg 89%
22:00 +19°C° 0 mm 2 m/s 741 mmHg 91%
23:00 +19°C° 0 mm 1 m/s 741 mmHg 91%
Mostrar mais

Necessitamos do seu Consentimento

A Meteoprog e os seus Fornecedores de Serviços podem armazenar e aceder a dados pessoais como cookies, identificadores do dispositivo ou outras tecnologias semelhantes existentes no seu dispositivo e processar estes dados para personalizar conteúdos e anúncios, assim como funcionalidades nas redes sociais e análise de tráfego.

  • Armazenar e/ou aceder a informações no seu dispositivo

    Os cookies, identificadores do dispositivo ou outras informações podem ser armazenados ou acedidos no seu dispositivo, para os fins acima indicados.

  • Anúncios e conteúdos personalizados, medição de anúncios e conteúdos, dados sobre o público-alvo e desenvolvimento de produtos

    Os anúncios e os conteúdos podem ser personalizados com base num perfil. Podem ser adicionados dados adicionais para uma maior personalização dos anúncios e dos conteúdos. A eficácia dos anúncios e dos conteúdos pode ser medida. Podem ser obtidas informações sobre o público que visualizou os anúncios e os conteúdos. Estes dados podem ser usados para desenvolver ou melhorar sistemas, softwares ou a experiência do utilizador.

Ao clicar em "Eu concordo”, permitirá o uso de cookies, identificadores do dispositivo e web beacons mencionados ou outras tecnologias semelhantes. As configurações do navegador do seu dispositivo podem ser alteradas.

Para certos fins, podem ser invocados interesses legítimos ao invés de consentimento. Pode ler mais informação sobre este assunto na nossa Política de Privacidade e Cookies.